This is the latest recevied weather packets stored in our database for station/object 4S6DRJ-13. If no packets are shown the sender has not sent any weather packets the latest 10 day(s).
| Time | Temp. | Humidity | Pressure | Rain* | Wind** | Luminosity | Snow |
|---|---|---|---|---|---|---|---|
| 1788273394 | 28.33° C | 82% | 1010.4 hPa | 0 mm | 0.89 m/s, 216° | 0 W/m² | - |
| 1788273333 | 28.33° C | 82% | 1010.4 hPa | 0 mm | 0.45 m/s, 147° | 0 W/m² | - |
| 1788273272 | 28.33° C | 82% | 1010.3 hPa | 0 mm | 1.79 m/s, 255° | 0 W/m² | - |
| 1788273211 | 28.89° C | 82% | 1010.6 hPa | 0 mm | 0.89 m/s, 226° | 0 W/m² | - |
| 1788273154 | 28.89° C | 82% | 1010.3 hPa | 0 mm | 2.68 m/s, 229° | 0 W/m² | - |
| 1788273089 | 28.89° C | 82% | 1010.5 hPa | 0 mm | 1.79 m/s, 239° | 0 W/m² | - |
| 1788273028 | 28.89° C | 82% | 1010.4 hPa | 0 mm | 0.45 m/s, 216° | 0 W/m² | - |
| 1788272967 | 28.89° C | 82% | 1010.3 hPa | 0 mm | 1.79 m/s, 252° | 0 W/m² | - |
| 1788272906 | 28.89° C | 82% | 1010.3 hPa | 0 mm | 0.89 m/s, 302° | 0 W/m² | - |
| 1788272845 | 28.89° C | 82% | 1010.4 hPa | 0 mm | 0 m/s | 0 W/m² | - |
| 1788272784 | 28.89° C | 82% | 1010.3 hPa | 0 mm | 0.45 m/s, 231° | 0 W/m² | - |
| 1788272723 | 28.89° C | 82% | 1010.3 hPa | 0 mm | 1.34 m/s, 236° | 0 W/m² | - |
| 1788272662 | 28.89° C | 82% | 1010.4 hPa | 0 mm | 0.89 m/s, 260° | 0 W/m² | - |
| 1788272601 | 28.89° C | 82% | 1010.3 hPa | 0 mm | 0.89 m/s, 207° | 0 W/m² | - |
| 1788272540 | 28.89° C | 82% | 1010.3 hPa | 0 mm | 0.45 m/s, 218° | 0 W/m² | - |
| 1788272479 | 28.89° C | 82% | 1010.3 hPa | 0 mm | 0.89 m/s, 245° | 0 W/m² | - |
| 1788272418 | 28.89° C | 82% | 1010.5 hPa | 0 mm | 0.45 m/s, 257° | 0 W/m² | - |
| 1788272357 | 28.89° C | 82% | 1010.2 hPa | 0 mm | 0.45 m/s, 292° | 0 W/m² | - |
| 1788272296 | 28.33° C | 82% | 1010.3 hPa | 0 mm | 0.45 m/s, 288° | 0 W/m² | - |
| 1788272235 | 28.33° C | 82% | 1010.4 hPa | 0 mm | 0 m/s | 0 W/m² | - |
| 1788272174 | 28.33° C | 82% | 1010.1 hPa | 0 mm | 0.89 m/s, 236° | 0 W/m² | - |
| 1788272113 | 28.33° C | 82% | 1010.3 hPa | 0 mm | 0 m/s | 0 W/m² | - |
| 1788272052 | 28.33° C | 82% | 1010.3 hPa | 0 mm | 0.89 m/s, 188° | 0 W/m² | - |
| 1788271991 | 28.33° C | 82% | 1010.3 hPa | 0 mm | 0.89 m/s, 197° | 0 W/m² | - |
| 1788271930 | 28.33° C | 82% | 1010.2 hPa | 0 mm | 0.45 m/s, 158° | 0 W/m² | - |
* Rain latest hour (hover to see other rain measurements)
** Current wind speed in m/s (hover to see current wind gust speed)